Regional Weather Roundup
Issued by NWS

Home | Current Version | Previous Version | Graphics & Text | Print | Product List | Glossary On
Versions: 1 2 3 4 5 6 7 8 9 10 11 12 13 14 15 16 17 18 19 20 21 22 23 24 25 26 27 28 29 30 31 32 33 34 35 36 37 38 39 40 41 42 43 44 45 46 47 48 49 50
000
ASUS43 KDTX 182110
RWRMI
MICHIGAN HOURLY REGIONAL WEATHER ROUNDUP
NATIONAL WEATHER SERVICE DETROIT/PONTIAC MI
500 PM EDT SAT APR 18 2015

NOTE: "FAIR" INDICATES FEW OR NO CLOUDS BELOW 12,000 FEET WITH NO
SIGNIFICANT WEATHER AND/OR OBSTRUCTION TO VISIBILITY.

MIZ047>049-052>055-059>063-066>070-074>076-081>083-182200-
SOUTHEAST LOWER MICHIGAN

CITY           SKY/WX    TMP DP  RH WIND       PRES   REMARKS
ADRIAN         PTSUNNY   71  41  33 SE17      30.06F
ALMA           SUNNY     63  24  22 NE21      30.15S
ANN ARBOR      MOSUNNY   70  31  23 E12G22    30.07F
BAD AXE        SUNNY     53  31  43 NE14      30.20R
DETROIT CITY   MOSUNNY   63  31  30 E13       30.12S
DETROIT        CLOUDY    69  27  20 NE13G22   30.10S
FLINT          SUNNY     66  27  23 E15       30.12F
GROSSE ILE     PTSUNNY   64  21  19 NE21G29   30.09F
HILLSDALE      MOSUNNY   74  43  33 SE17      30.04S
HOWELL         SUNNY     68  27  21 NE10G18   30.10S

CITY           SKY/WX    TMP DP  RH WIND       PRES   REMARKS
JACKSON        MOSUNNY   73  35  25 N17G23    30.05F
LAMBERTVILLE   CLOUDY    66  32  28 E13G22    30.09S
LANSING        SUNNY     66  24  20 NE17G23   30.11F
LAPEER         NOT AVBL
MASON          SUNNY     68  33  27 NE14G21   30.08F
MONROE         PTSUNNY   66  34  30 E13G20    30.07S
MT. CLEMENS    PTSUNNY   63  23  22 NE15      30.11S
PONTIAC        PTSUNNY   64  25  22 NE17      30.11F
PORT HOPE        N/A     48  36  63 N7        30.19F
PORT HURON     SUNNY     55  32  41 NE14      30.16R
TRI CITIES     SUNNY     59  34  39 NE15G22   30.18S
YPSILANTI      MOSUNNY   73  31  21 NE18G24   30.09S
$$
MIZ043>046-050>051-056>058-064>065-071>073-077>080-182200-
SOUTHWEST LOWER MICHIGAN

CITY           SKY/WX    TMP DP  RH WIND       PRES   REMARKS
BATTLE CREEK   SUNNY     74  35  24 NE15      30.05F
BENTON HARBOR  MOSUNNY   56  37  49 N8        30.02F
BIG RAPIDS     SUNNY     69  22  16 E16       30.09S
COLDWATER      MOSUNNY   74  41  30 E9        30.02S
HOLLAND        SUNNY     76  37  24 E10       30.05F
GRAND RAPIDS   MOSUNNY   69  32  25 E18       30.08S
KALAMAZOO      MOSUNNY   78  38  23 E10       30.03F
MARSHALL       MOSUNNY   72  36  26 NE10      30.04F
MUSKEGON       MOSUNNY   75  30  19 NE7       30.05F
$$
MIZ016>042-182200-
NORTHERN LOWER MICHIGAN

CITY           SKY/WX    TMP DP  RH WIND       PRES   REMARKS
ALPENA         SUNNY     59  25  27 E9        30.21R
BEAVER ISLAND  SUNNY     58  25  27 N6        30.20S
BELLAIRE       SUNNY     66  12  12 N3        30.14F
CADILLAC       SUNNY     67  19  16 E5        30.12S
CHARLEVOIX     SUNNY     48  32  53 N10       30.22S
FRANKFORT      CLEAR     58  27  31 N10G17    30.14S
GAYLORD        SUNNY     60  15  17 E7        30.17R
GRAYLING       SUNNY     64  13  13 NE3G17    30.15F
HARBOR SPRINGS SUNNY     47  32  55 SW5       30.19R
HOUGHTON LAKE  SUNNY     66  13  12 NE10G20   30.14S
MANISTEE       MOSUNNY   61  37  41 NW8       30.10S
OSCODA         SUNNY     56  28  35 NE12      30.20S
PELLSTON       SUNNY     62  22  21 NE10      30.19S
TRAVERSE CITY  MOSUNNY   54  32  43 NE13      30.15S
$$
MIZ007>008-015-182200-
EASTERN UPPER MICHIGAN

CITY           SKY/WX    TMP DP  RH WIND       PRES   REMARKS
KINROSS        SUNNY     55  27  33 NW9       30.19S
MACKINAC ISLAN SUNNY     54  28  37 SE8       30.20R
NEWBERRY       SUNNY     53  35  50 N12       30.20S
S. S. MARIE    SUNNY     54  30  40 W10       30.19S
$$
MIZ004>006-011>014-085-182200-
CENTRAL UPPER MICHIGAN

CITY           SKY/WX    TMP DP  RH WIND       PRES   REMARKS
MANISTIQUE     SUNNY     51  33  50 S6        30.20S
ESCANABA       SUNNY     54  34  47 SE8       30.19F
MENOMINEE      SUNNY     54  30  40 E14       30.19F
SAWYER-GWINN   SUNNY     46  30  53 NE13      30.21F
$$
MIZ001>003-009>011-084-182200-
WESTERN UPPER MICHIGAN

CITY           SKY/WX    TMP DP  RH WIND       PRES   REMARKS
IRON MOUNTAIN  SUNNY     61  23  23 SE12G17   30.15F
HOUGHTON       SUNNY     48  28  46 E13       30.21F
COPPER HARBOR    N/A     39  31  72 E5        30.25F
IRONWOOD       SUNNY     63  21  20 SE10G20   30.07F
$$

ABBREVIATIONS USED IN REMARKS
   TC - TEMPERATURE IN CELSIUS
  WCI - WIND CHILL INDEX
   HX - HEAT INDEX
  VSB - VISIBILITY



USA.gov is the U.S. government's official web portal to all federal, state and local government web resources and services.